Regional Weather Roundup
Issued by NWS Pendleton, OR

Home | Current Version | Previous Version | Text Only | Print | Product List | Glossary On
Versions: 1 2 3 4 5 6 7 8 9 10 11 12 13 14 15 16 17 18 19 20 21 22 23 24 25 26 27 28 29 30 31 32 33 34 35 36 37 38 39 40 41 42 43 44 45 46 47 48 49 50
000
ASUS46 KPDT 291410
RWRPDT
PENDLETON REGIONAL WEATHER ROUNDUP
NATIONAL WEATHER SERVICE PENDLETON OREGON
700 AM PDT SUN MAY 29 2016

NOTE: FAIR INDICATES FEW OR NO CLOUDS BELOW 12,000 FEET WITH NO
SIGNIFICANT WEATHER AND/OR OBSTRUCTIONS TO VISIBILITY.

# INDICATES UNOFFICIAL STATION AND DATA

WAZ520-291510-
EAST SLOPES OF WASHINGTON CASCADES

CITY            SKY/WX      TMP DP  RH  WIND    PRES   REMARKS
#CLE ELUM HS    N/A         51  42  71  W6      29.98S
#CLE ELUM 2NW   N/A         51  40  66  W1      N/A
#GLENWOOD       N/A         49  45  86  CALM    30.01S
#MANASTASH CYN  N/A         42  37  82  CALM    29.99F
#NELSON 3SW     N/A         48  40  74  CALM    30.19F
#NILE           N/A         42  40  93  CALM    29.28R
#RONALD 2NW     N/A         50  N/A N/A CALM    29.89S
#TEANAWAY 4NE   N/A         43  43  100 W2      N/A
#TROUT LAKE 1NE N/A         49  46  89  SW1     30.03S
$$

WAZ521-291510-
SIMCOE HIGHLANDS

CITY            SKY/WX      TMP DP  RH  WIND    PRES   REMARKS
#CENTERVILLE 1SWN/A         51  44  77  W8      29.97R
#GOLDENDALE 1NE N/A         52  37  56  S3      N/A
#GOLDENDALE 4W  N/A         50  48  93  W7      30.08R
#GOODNOE HILLS  N/A         57  48  72  W15     29.94R
#LYLE 6NE       N/A         54  48  80  W1      29.99S
$$

WAZ026-291510-
KITTITAS VALLEY

CITY            SKY/WX      TMP DP  RH  WIND    PRES   REMARKS
ELLENSBURG AP   PTCLDY      53  43  69  NW16    30.01R
#ELLENSBURG CWU N/A         50  43  77  N3      29.93S
#ELLENSBURG 3NE N/A         51  44  77  N6      30.01S
#ELLENSBURG     N/A         55  48  77  SW2     N/A
#ELLENSBURG 1E  N/A         50  N/A N/A CALM    N/A
#ELLENSBURG 13S N/A         53  43  69  E2      N/A
#KITTITAS 4N    N/A         50  41  71  NW3     30.04R
#KITTITAS 3S    N/A         44  42  93  CALM    29.98R
#THORP 6N       N/A         48  43  83  W8      30.01S
$$

WAZ027-291510-
YAKIMA VALLEY

CITY            SKY/WX      TMP DP  RH  WIND    PRES   REMARKS
SUNNYSIDE AP    PTCLDY      49  45  86  CALM    30.01R
YAKIMA AIRPORT  PTCLDY      53  43  69  CALM    30.02R
YAKIMA-VAGABOND SUNNY       53  43  69  CALM    29.99S
#DONALD 2NE     N/A         67  22  18  CALM    28.86R
#GRANDVIEW      N/A         52  46  80  CALM    30.01R
#MABTON         N/A         52  46  80  CALM    30.00R
#NACHES 2SW     N/A         52  44  74  W6      29.99S
#TERRACE HTS    N/A         49  44  83  CALM    29.95R
#TOPPENISH      N/A         53  45  74  CALM    29.91R
#WEST VALLEY    N/A         49  42  77  SW1     29.97S
#W YAKIMA       N/A         55  45  69  N1      29.99R
#WHITE SWAN 5E  N/A         55  48  77  CALM    29.99R
#WILEY CITY 3W  N/A         52  40  63  CALM    29.98R
$$

WAZ028-291510-
LOWER COLUMBIA BASIN...WASHINGTON

CITY            SKY/WX      TMP DP  RH  WIND    PRES   REMARKS
PASCO           PTCLDY      57  49  75  CALM    30.01R
PROSSER AWOS    N/A         54  46  74  SE2     30.04R
RICHLAND AWOS   PTCLDY      62  46  56  SW8     30.01R
#BENTON CITY    N/A         56  46  69  NW1     29.91R
#CONNELL 5N     N/A         53  43  69  CALM    29.98R
#CONNELL 5NW    N/A         51  44  77  CALM    29.94R
#ELTOPIA 6NW    N/A         56  48  74  CALM    28.97R
#KAHLOTUS       N/A         56  45  66  W9      29.97R
#KENNEWICK 3S   N/A         58  47  67  N5      29.99R
#PATERSON       N/A         56  48  74  CALM    29.99R
#SAGEMOOR 2W    N/A         58  49  72  CALM    29.84R
#TOUCHET 2S     N/A         60  48  64  SW6     29.97S
#WEST PASCO     N/A         56  46  69  CALM    30.07R
$$

WAZ029-291510-
FOOTHILLS OF THE BLUES...WASHINGTON

CITY            SKY/WX      TMP DP  RH  WIND    PRES   REMARKS
WALLA WALLA AP  MOSUNNY     60  43  53  S9      30.02R
#CLYDE 6NW      N/A         55  44  66  SW8     29.98S
#DAYTON SCHOOL  N/A         52  40  63  CALM    30.03R
#LOWDEN 2SE     N/A         55  50  83  CALM    29.98R
#PLEASANT VIEW 1N/A         54  45  71  S7      30.01S
#PRESCOTT       N/A         50  48  93  CALM    29.99S
#SUDBURY        N/A         62  N/A N/A CALM    N/A
#WHITMAN COLLEGEN/A         58  46  64  SE1     30.04R
#WAITSBURG 5S   N/A         53  46  77  S2      30.09R
#WAITSBURG 8N   N/A         57  23  27  S7      29.88S
#WALLA WALLA U  N/A         58  46  64  CALM    30.00R
#WHITMAN MISSIONN/A         55  49  80  CALM    30.01S
$$

WAZ030-291510-
BLUE MOUNTAINS...WASHINGTON

CITY            SKY/WX      TMP DP  RH  WIND    PRES   REMARKS
#DIXIE 5SE      N/A         52  42  69  S7      29.97R
$$

ORZ009-041-WAZ024-291510-
COLUMBIA RIVER GORGE

CITY            SKY/WX      TMP DP  RH  WIND    PRES   REMARKS
HOOD RIVER AP   CLOUDY      57  46  67  NW10    30.06S
THE DALLES AP   PTCLDY      61  47  60  NW9     30.04R
#ARLINGTON AIRPON/A         57  47  69  W6      30.02R
#CELILO DOT     N/A         61  47  60  SW2     N/A
#LYLE           N/A         58  50  75  N3      30.05R
#MARYHILL 2W    N/A         55  50  83  CALM    N/A
#MOSIER 1S      N/A         56  39  53  W6      30.03S
#MURDOCK        N/A         60  50  69  NW12    30.00S
#RUFUS DOT      N/A         60  46  60  W16     N/A
#SMITHVILLE     N/A         59  50  72  W13     30.02R

$$

ORZ510-291510-
NORTH CENTRAL OREGON

CITY            SKY/WX      TMP DP  RH  WIND    PRES   REMARKS
#ANTELOPE       N/A         45  40  82  CALM    29.89S
#CHENOWITH 1W   N/A         52  46  80  NW20    N/A
#COW CYN RST AREN/A         54  N/A N/A CALM    N/A
#DUFUR 9E       N/A         50  45  83  NW5     30.07R
#GRASS VALLEY   N/A         52  47  83  NW1     N/A
#GRASS VALLEY 1SN/A         50  46  86  CALM    30.00R
#KENT DOT       N/A         49  40  71  N6      N/A
#MAUPIN SCHOOL  N/A         51  43  74  CALM    30.09R
#MORO SCHOOL    N/A         53  50  89  W12     30.05R
#SHANIKO 4NW    N/A         49  -56  1  W3      30.05R
#TYGH VALLEY 2NEN/A         47  43  86  CALM    30.03R
#WAPANITIA AIRPON/A         52  45  77  NW3     30.03R
#WASCO DOT      N/A         54  48  80  SW6     N/A
#WASCO 5NE      N/A         52  46  80  CALM    30.00S
$$

ORZ511-291510-
CENTRAL OREGON

CITY            SKY/WX      TMP DP  RH  WIND    PRES   REMARKS
BEND AIRPORT    PTCLDY      50  41  71  SW7     30.07S
MADRAS AIRPORT  PTCLDY      52  46  80  CALM    30.08R
PRINEVILLE AP   PTCLDY      48  43  83  SE3     30.08R
REDMOND AIRPORT PTCLDY      50  40  68  S5      30.07R
#ASHWOOD SCHOOL N/A         45  40  82  CALM    30.03S
#BEND 1SW       N/A         46  41  83  W1      N/A
#BEND-AWBREY    N/A         47  42  83  SW2     29.99S
#BEND-KIM LN    N/A         47  41  79  S3      30.06R
#CULVER         N/A         49  42  77  CALM    29.98S
#CULVER 8W      N/A         49  39  68  CALM    30.05S
#LAKE BILLY CHINN/A         50  N/A N/A CALM    30.14S
#MADRAS 4S      N/A         51  18  27  NW5     30.13R
#POWELL BUTTE 3EN/A         42  40  93  S1      N/A
#POWELL BUTTE   N/A         52  44  74  SW3     29.94R
#PRINEVILLE 3N  N/A         47  43  86  E2      30.01S

$$


ORZ509-291510-
EAST SLOPES OF OREGON CASCADES

CITY            SKY/WX      TMP DP  RH  WIND    PRES   REMARKS
SISTERS AWOS    N/A         45  37  73  CALM    30.04R
#BLUE BOX PASS  N/A         44  N/A N/A W2      N/A
#CAMP SHERMAN   N/A         37  34  89  CALM    30.11R
#LA PINE DOT    N/A         41  35  79  CALM    N/A
#LA PINE 4NW    N/A         38  35  89  CALM    30.07R
#LAVA BUTTE DOT N/A         46  38  73  CALM    N/A
#SISTERS AIRPOR N/A         45  42  89  CALM    30.17S
#SISTERS ODOT   N/A         44  N/A N/A CALM    N/A
#SISTERS 3N     N/A         42  34  73  CALM    30.06S
#SUNRIVER       N/A         41  37  86  S2      30.04R
#TUMALO 3W      N/A         51  41  68  CALM    29.88R
#WANOGA BUTTE D N/A         45  31  58  NW3     N/A

$$

ORZ044-291510-
LOWER COLUMBIA BASIN...OREGON

CITY            SKY/WX      TMP DP  RH  WIND    PRES   REMARKS
HERMISTON       MOCLDY      60  45  58  W7      30.01R
#BOARDMAN SCHOOLN/A         59  47  64  SW6     30.01S
#ECHO 8SW       N/A         59  46  62  SW8     30.02R
#I-84 EX 198 DOTN/A         60  44  55  E8      N/A
#UMATILLA SCHOOLN/A         59  51  75  CALM    30.02F
#UMATILLA       N/A         57  47  69  CALM    29.94S
$$

ORZ507-291510-
NORTHERN FOOTHILLS OF THE BLUES

CITY            SKY/WX      TMP DP  RH  WIND    PRES   REMARKS
PENDLETON AIRPT CLOUDY      57  43  59  S7      30.03R
#ADAMS 3WNW     N/A         53  46  77  CALM    30.01S
#ATHENA         N/A         55  46  72  CALM    30.03R
#CAYUSE         N/A         55  45  69  E3      30.01R
#HELIX SCHOOL   N/A         46  42  86  CALM    30.01S
#HELIX 3N       N/A         54  45  71  S6      30.00S
#HOLDMAN 5SE    N/A         58  48  69  CALM    30.02R
#HOLDMAN 6E     N/A         55  45  69  NW2     29.81S
#M-F GROVE ELEM N/A         60  42  51  CALM    30.00R
#M-FREEWATER 5SEN/A         56  44  64  NE3     30.02R
#PENDLETON DNTN N/A         52  42  69  E3      30.04S
#PDT AQUATIC CTRN/A         56  42  59  CALM    30.05S
#PDT SUNRIDGE   N/A         57  45  64  SE1     30.04R
#PENDLETON 7NW  N/A         56  46  69  SW3     31.97S
#PILOT ROCK 1S  N/A         55  41  59  S7      30.04R
#PILOT ROCK     N/A         55  44  66  W2      30.06R
#TUTUILLA       N/A         54  47  77  CALM    30.03R
#UMAPINE 2E     N/A         62  49  62  S1      29.99R
#WESTON SCHOOL  N/A         55  41  59  NW5     29.93R

$$

ORZ508-291510-
SOUTHERN FOOTHILLS OF THE BLUES

CITY            SKY/WX      TMP DP  RH  WIND    PRES   REMARKS
LEXINGTON       SUNNY       55  43  64  E7      30.08R
#AJAX           N/A         52  39  61  S2      27.80R
#CONDON SCHOOL  N/A         50  43  77  CALM    30.01R
#CONDON 5W      N/A         50  42  74  W3      30.03S
#FOSSIL SCHOOL  N/A         47  42  83  CALM    30.01R
#HEPPNER EOC    N/A         50  42  74  E6      29.96R
#HEPPNER 4NE    N/A         55  44  66  CALM    30.01S
#LEXINGTON 2SE  N/A         53  44  71  SE5     30.01R
#OLEX 4N        N/A         55  46  72  CALM    30.02S
#RUGGS 5NE      N/A         54  44  69  NE1     30.20S
#RUGGS 2SW      N/A         53  42  66  SW5     30.03R

$$

ORZ502-503-291510-
BLUE MOUNTAINS

CITY            SKY/WX      TMP DP  RH  WIND    PRES   REMARKS
#BATTLE MTN DOT N/A         46  46  100 N2      N/A
#CUTSFORTH PARK N/A         36  34  92  CALM    29.84S
#GREENHORN 9SW  N/A         36  35  96  CALM    26.26S
#HARDMAN 10S    N/A         61  34  36  N5      30.22S
#HEPPNER 15SE   N/A         40  40  100 CALM    29.98R
#LADD CYN SMT   N/A         47  39  74  CALM    N/A
#LADD CREEK ODOTN/A         47  42  83  SW1     N/A
#LONG CREEK HS  N/A         43  42  96  CALM    N/A
#N POWDER DOT   N/A         45  43  93  NW3     N/A
#PIKES PEAK     N/A         51  40  66  SW15    27.99S
#TOLLGATE       N/A         44  39  82  S2      29.93R
#TROY SCHOOL    N/A         49  43  80  CALM    29.86S
#UKIAH          N/A         38  37  96  CALM    29.97R
#WESTON 4E      N/A         51  42  71  S3      29.98R
$$

ORZ505-291510-
JOHN DAY BASIN

CITY            SKY/WX      TMP DP  RH  WIND    PRES   REMARKS
JOHN DAY        N/A         N/A N/A N/A MISG    N/A
#DAYVILLE SCHOOLN/A         46  36  68  CALM    30.03R
#MITCHELL       N/A         48  44  86  CALM    30.21R
#MITCHELL 8NW   N/A         54  40  59  CALM    30.19R
#MONUMENT HS    N/A         49  40  71  CALM    30.01R
#MT. VERNON 5SE N/A         47  38  71  CALM    30.02R
#SPRAY SCHOOL   N/A         51  N/A N/A CALM    N/A
#WINLOCK        N/A         54  43  66  CALM    30.02R
$$

ORZ506-291510-
OCHOCO AND JOHN DAY HIGHLANDS

CITY            SKY/WX      TMP DP  RH  WIND    PRES   REMARKS
#HORSE RIDGE DO N/A         38  33  82  SW10    N/A
#KEYES SMT DOT  N/A         49  40  71  W1      N/A
#PAULINA SCHOOL N/A         40  35  82  CALM    N/A
#PINE MTN OBS   N/A         44  34  68  NW5     N/A
#PRAIRIE CITY   N/A         39  37  92  CALM    30.19S
#SENECA         N/A         36  N/A N/A CALM    N/A
#SENECA 9NW     N/A         33  31  92  CALM    30.02R
$$

ORZ049-291510-
GRANDE RONDE VALLEY

CITY            SKY/WX      TMP DP  RH  WIND    PRES   REMARKS
LA GRANDE       CLOUDY      48  36  63  CALM    30.04R
#COVE           N/A         51  46  83  CALM    30.07R
#COVE SCHOOL    N/A         52  44  74  CALM    30.06S
#COVE 6NW       N/A         45  42  89  CALM    29.93R
#ELGIN 3N       N/A         46  41  83  CALM    30.03R
#ELGIN 1E       N/A         43  38  82  CALM    N/A
#ISLAND CITY 4N N/A         51  49  93  CALM    30.11S
#LADD CYN DOT   N/A         49  44  83  CALM    N/A
#UNION 1S       N/A         50  43  77  CALM    29.91R
$$

ORZ050-291510-
WALLOWA COUNTY

CITY            SKY/WX      TMP DP  RH  WIND    PRES   REMARKS
JOSEPH AIRPORT  PTCLDY      48  41  77  CALM    N/A
#ENTERPRISE AP  N/A         49  29  46  CALM    29.98S
#ENTERPRISE HS  N/A         42  38  86  CALM    30.06S
#IMNAHA SCHOOL  N/A         46  43  89  SW1     30.03S
#IMNAHA 10S     N/A         44  39  82  SW3     30.02S
#JOSEPH 3N      N/A         44  37  76  CALM    30.06S
#JOSEPH 3W      N/A         52  43  71  CALM    29.88S
#LOSTINE 3SE    N/A         43  38  82  SE3     30.04R
#MT HOWARD 8000 N/A         42  26  53  S5      30.14R
#PROMISE 1S     N/A         45  42  89  CALM    30.07S
#WALLOWA SCHOOL N/A         43  39  86  CALM    30.02R



$$



USA.gov is the U.S. government's official web portal to all federal, state and local government web resources and services.